BEIDOU-2 G8

Last updated on Mon Nov 03 2025 00:02:59 GMT+0000 (Coordinated Universal Time)

1 44231U 19027A 25306.37336679 -.00000233 00000+0 00000+0 0 9990 2 44231 1.5552 74.5451 0007228 256.4447 349.8624 1.00273931 23806
UTC large
Height (km)
Speed (km/s)
/
Latitude / Longitude
Inclination (degrees)
Orbital Period (minutes)
Azimuth
Elevation
Range (km)
Doppler Factor

Next 0 passes for location: London (51.5072 / 0.1276)

Sorry there are no passes over London.